When you browse on this site, cookies collect data to enhance your experience and personalize the content and advertising you see.
Visit our Privacy Policy to learn more. By continuing to use the site, you agree to this use of cookies and data.
  • In Deutschland
  • Länderverzeichnis
  • Für 7 Tage
  • Wassertemperatur
  • Wetterkarte
  • Widgets
  • user-avatar
    Anmelden

    Stündliche Wetter Kakvinskie Pechi

    Heute, 28 Januar, Dienstag

    Zeit Temperatur Niederschläge Wind Luftdruck Luftfeuchtigkeit
    00:00 -18°C° 0 mm 1 m/S 727 mmHg 95%
    01:00 -18°C° 0 mm 1 m/S 727 mmHg 95%
    02:00 -19°C° 0 mm 1 m/S 728 mmHg 94%
    03:00 -20°C° 0 mm 1 m/S 729 mmHg 93%
    04:00 -20°C° 0 mm 1 m/S 730 mmHg 93%
    05:00 -21°C° 0 mm 1 m/S 730 mmHg 92%
    06:00 -24°C° 0 mm 2 m/S 731 mmHg 92%
    07:00 -25°C° 0 mm 2 m/S 731 mmHg 91%
    08:00 -24°C° 0 mm 2 m/S 732 mmHg 91%
    09:00 -24°C° 0 mm 2 m/S 732 mmHg 91%
    10:00 -23°C° 0 mm 2 m/S 733 mmHg 90%
    11:00 -21°C° 0 mm 2 m/S 734 mmHg 89%
    12:00 -20°C° 0 mm 2 m/S 734 mmHg 87%
    13:00 -19°C° 0 mm 2 m/S 735 mmHg 86%
    14:00 -20°C° 0 mm 2 m/S 735 mmHg 87%
    15:00 -21°C° 0 mm 2 m/S 736 mmHg 89%
    16:00 -24°C° 0 mm 2 m/S 736 mmHg 90%
    17:00 -25°C° 0 mm 2 m/S 737 mmHg 90%
    18:00 -26°C° 0 mm 2 m/S 737 mmHg 90%
    19:00 -28°C° 0 mm 2 m/S 738 mmHg 90%
    20:00 -28°C° 0 mm 2 m/S 738 mmHg 90%
    21:00 -28°C° 0 mm 2 m/S 739 mmHg 90%
    22:00 -28°C° 0 mm 2 m/S 739 mmHg 89%
    23:00 -28°C° 0 mm 2 m/S 740 mmHg 88%

    Morgen, 29 Januar, Mittwoch

    Zeit Temperatur Niederschläge Wind Luftdruck Luftfeuchtigkeit
    00:00 -28°C° 0 mm 2 m/S 740 mmHg 87%
    01:00 -28°C° 0 mm 2 m/S 741 mmHg 86%
    02:00 -27°C° 0 mm 2 m/S 741 mmHg 85%
    03:00 -27°C° 0 mm 2 m/S 741 mmHg 85%
    04:00 -27°C° 0 mm 2 m/S 742 mmHg 85%
    05:00 -27°C° 0 mm 2 m/S 742 mmHg 86%
    06:00 -26°C° 0 mm 2 m/S 742 mmHg 87%
    07:00 -26°C° 0 mm 2 m/S 742 mmHg 88%
    08:00 -25°C° 0 mm 2 m/S 743 mmHg 88%
    09:00 -24°C° 0 mm 2 m/S 743 mmHg 88%
    10:00 -23°C° 0 mm 2 m/S 743 mmHg 88%
    11:00 -21°C° 0 mm 2 m/S 743 mmHg 87%
    12:00 -19°C° 0 mm 2 m/S 743 mmHg 85%
    13:00 -17°C° 0 mm 2 m/S 744 mmHg 84%
    14:00 -19°C° 0 mm 2 m/S 744 mmHg 86%
    15:00 -18°C° 0 mm 1 m/S 744 mmHg 88%
    16:00 -19°C° 0 mm 1 m/S 744 mmHg 90%
    17:00 -20°C° 0 mm 1 m/S 744 mmHg 89%
    18:00 -20°C° 0 mm 1 m/S 744 mmHg 89%
    19:00 -21°C° 0 mm 1 m/S 744 mmHg 88%
    20:00 -21°C° 0 mm 1 m/S 744 mmHg 88%
    21:00 -21°C° 0 mm 0 m/S 744 mmHg 87%
    22:00 -20°C° 0 mm 0 m/S 744 mmHg 87%
    23:00 -20°C° 0 mm 0 m/S 744 mmHg 87%

    übermorgen, 30 Januar, Donnerstag

    Zeit Temperatur Niederschläge Wind Luftdruck Luftfeuchtigkeit
    00:00 -20°C° 0 mm 0 m/S 744 mmHg 86%
    01:00 -20°C° 0 mm 0 m/S 744 mmHg 86%
    02:00 -20°C° 0 mm 0 m/S 744 mmHg 88%
    03:00 -20°C° 0 mm 0 m/S 744 mmHg 89%
    04:00 -20°C° 0 mm 0 m/S 744 mmHg 91%
    05:00 -20°C° 0.1 mm 0 m/S 744 mmHg 93%
    06:00 -20°C° 0.1 mm 0 m/S 744 mmHg 96%
    07:00 -20°C° 0.1 mm 0 m/S 744 mmHg 99%
    08:00 -19°C° 0.2 mm 0 m/S 744 mmHg 98%
    09:00 -19°C° 0.2 mm 1 m/S 744 mmHg 97%
    10:00 -19°C° 0.2 mm 1 m/S 744 mmHg 96%
    11:00 -18°C° 0.1 mm 1 m/S 744 mmHg 95%
    12:00 -18°C° 0.1 mm 1 m/S 743 mmHg 94%
    13:00 -17°C° 0.1 mm 1 m/S 743 mmHg 93%
    14:00 -18°C° 0.1 mm 1 m/S 743 mmHg 94%
    15:00 -18°C° 0.1 mm 1 m/S 743 mmHg 96%
    16:00 -19°C° 0.1 mm 1 m/S 743 mmHg 98%
    17:00 -19°C° 0 mm 1 m/S 743 mmHg 98%
    18:00 -20°C° 0 mm 1 m/S 743 mmHg 99%
    19:00 -20°C° 0 mm 1 m/S 743 mmHg 99%
    20:00 -21°C° 0 mm 1 m/S 743 mmHg 99%
    21:00 -21°C° 0 mm 0 m/S 743 mmHg 99%
    22:00 -22°C° 0 mm 0 m/S 743 mmHg 99%
    23:00 -22°C° 0 mm 0 m/S 742 mmHg 99%

    31 Januar, Freitag

    Zeit Temperatur Niederschläge Wind Luftdruck Luftfeuchtigkeit
    00:00 -22°C° 0 mm 1 m/S 742 mmHg 99%
    01:00 -22°C° 0 mm 1 m/S 742 mmHg 99%
    02:00 -22°C° 0.1 mm 1 m/S 742 mmHg 99%
    03:00 -21°C° 0.1 mm 1 m/S 742 mmHg 99%
    04:00 -21°C° 0.1 mm 1 m/S 742 mmHg 98%
    05:00 -21°C° 0.1 mm 1 m/S 742 mmHg 98%
    06:00 -21°C° 0.1 mm 1 m/S 742 mmHg 98%
    07:00 -21°C° 0.1 mm 1 m/S 742 mmHg 98%
    08:00 -21°C° 0.1 mm 1 m/S 742 mmHg 98%
    09:00 -21°C° 0.1 mm 1 m/S 742 mmHg 97%
    10:00 -20°C° 0.1 mm 1 m/S 741 mmHg 97%
    11:00 -20°C° 0.1 mm 1 m/S 741 mmHg 96%
    12:00 -19°C° 0.1 mm 1 m/S 741 mmHg 95%
    13:00 -18°C° 0.1 mm 1 m/S 741 mmHg 94%
    14:00 -18°C° 0.2 mm 1 m/S 741 mmHg 95%
    15:00 -18°C° 0.2 mm 1 m/S 740 mmHg 96%
    16:00 -18°C° 0.2 mm 1 m/S 740 mmHg 97%
    17:00 -18°C° 0.2 mm 1 m/S 740 mmHg 97%
    18:00 -19°C° 0.2 mm 1 m/S 740 mmHg 97%
    19:00 -19°C° 0.2 mm 1 m/S 740 mmHg 98%
    20:00 -19°C° 0.1 mm 1 m/S 740 mmHg 98%
    21:00 -19°C° 0.1 mm 1 m/S 739 mmHg 98%
    22:00 -18°C° 0.1 mm 1 m/S 739 mmHg 98%
    23:00 -18°C° 0.2 mm 1 m/S 739 mmHg 98%

    1 Februar, Samstag

    Zeit Temperatur Niederschläge Wind Luftdruck Luftfeuchtigkeit
    00:00 -18°C° 0.2 mm 1 m/S 739 mmHg 97%
    01:00 -18°C° 0.2 mm 1 m/S 739 mmHg 97%
    02:00 -18°C° 0.4 mm 1 m/S 738 mmHg 97%
    03:00 -18°C° 0.4 mm 1 m/S 738 mmHg 97%
    04:00 -20°C° 0.4 mm 2 m/S 738 mmHg 97%
    05:00 -18°C° 0.3 mm 1 m/S 738 mmHg 97%
    06:00 -18°C° 0.3 mm 1 m/S 737 mmHg 97%
    07:00 -18°C° 0.3 mm 1 m/S 737 mmHg 97%
    08:00 -20°C° 0.2 mm 2 m/S 737 mmHg 97%
    09:00 -20°C° 0.2 mm 2 m/S 737 mmHg 96%
    10:00 -19°C° 0.2 mm 2 m/S 737 mmHg 96%
    11:00 -19°C° 0.2 mm 2 m/S 737 mmHg 96%
    12:00 -19°C° 0.2 mm 2 m/S 737 mmHg 95%
    13:00 -18°C° 0.2 mm 2 m/S 736 mmHg 95%
    14:00 -18°C° 0.3 mm 2 m/S 736 mmHg 95%
    15:00 -18°C° 0.3 mm 2 m/S 736 mmHg 96%
    16:00 -18°C° 0.3 mm 2 m/S 736 mmHg 96%
    17:00 -19°C° 0.3 mm 2 m/S 736 mmHg 96%
    18:00 -19°C° 0.3 mm 2 m/S 736 mmHg 96%
    19:00 -19°C° 0.3 mm 2 m/S 736 mmHg 97%
    20:00 -19°C° 0.2 mm 2 m/S 736 mmHg 97%
    21:00 -19°C° 0.2 mm 2 m/S 736 mmHg 97%
    22:00 -17°C° 0.2 mm 1 m/S 735 mmHg 97%
    23:00 -17°C° 0.2 mm 1 m/S 735 mmHg 97%

    2 Februar, Sonntag

    Zeit Temperatur Niederschläge Wind Luftdruck Luftfeuchtigkeit
    00:00 -17°C° 0.2 mm 1 m/S 735 mmHg 97%
    01:00 -16°C° 0.2 mm 1 m/S 735 mmHg 97%
    02:00 -16°C° 0.1 mm 1 m/S 735 mmHg 97%
    03:00 -16°C° 0.1 mm 1 m/S 735 mmHg 97%
    04:00 -16°C° 0.1 mm 1 m/S 735 mmHg 97%
    05:00 -16°C° 0.1 mm 1 m/S 735 mmHg 97%
    06:00 -16°C° 0.1 mm 1 m/S 735 mmHg 97%
    07:00 -16°C° 0.1 mm 1 m/S 735 mmHg 97%
    08:00 -16°C° 0.2 mm 1 m/S 735 mmHg 96%
    09:00 -15°C° 0.2 mm 1 m/S 735 mmHg 96%
    10:00 -15°C° 0.2 mm 1 m/S 735 mmHg 95%
    11:00 -14°C° 0.1 mm 1 m/S 735 mmHg 94%
    12:00 -14°C° 0.1 mm 1 m/S 735 mmHg 93%
    13:00 -13°C° 0.1 mm 1 m/S 735 mmHg 92%
    14:00 -14°C° 0 mm 0 m/S 735 mmHg 94%
    15:00 -15°C° 0 mm 0 m/S 735 mmHg 96%
    16:00 -16°C° 0 mm 0 m/S 736 mmHg 98%
    17:00 -17°C° 0 mm 0 m/S 736 mmHg 98%
    18:00 -17°C° 0 mm 0 m/S 736 mmHg 98%
    19:00 -18°C° 0 mm 0 m/S 736 mmHg 99%
    20:00 -19°C° 0 mm 0 m/S 736 mmHg 99%
    21:00 -19°C° 0 mm 0 m/S 736 mmHg 99%
    22:00 -19°C° 0 mm 0 m/S 736 mmHg 99%
    23:00 -19°C° 0 mm 0 m/S 736 mmHg 99%
    Mehr zeigen